This demonstration page uses our WeatherBlox Daily Observations layout. Learn more.

Left ArrowRight Arrow

53.62937, 11.41316

Hourly Observations for December 24, 2018

Temp ( °F °C ) Dew Point ( °F °C ) Humidity (%) Winds ( mph kmh ) Pressure ( in mb ) Visibility ( mi km ) Precip ( " mm )
12:15 am 00:15 Mostly Cloudy with Light Showers 36 2 36 2 100 100 NE 7 11 29.91 1013 3 5 N/A
12:20 am 00:20 Mostly Cloudy with Light Showers 36 2 36 2 100 100 NE 7 11 29.91 1013 4 6 N/A
1:20 am 01:20 Mostly Cloudy 36 2 34 1 93 93 NNE 7 11 29.94 1014 30 48 N/A
1:54 am 01:54 Mostly Cloudy 36 2 34 1 93 93 NNE 7 11 29.97 1015 30 48 N/A
2:20 am 02:20 Mostly Cloudy 36 2 34 1 93 93 NNE 10 17 29.97 1015 30 48 N/A
3:20 am 03:20 Mostly Cloudy 34 1 32 0 93 93 NNE 9 15 30.00 1016 30 48 N/A
4:20 am 04:20 Mostly Cloudy 32 0 30 -1 93 93 N 12 19 30.03 1017 30 48 N/A
5:20 am 05:20 Mostly Cloudy 32 0 28 -2 87 87 NNE 13 20 30.06 1018 30 48 N/A
6:20 am 06:20 Mostly Cloudy 32 0 28 -2 87 87 NNW 7 11 30.09 1019 30 48 N/A
6:58 am 06:58 Mostly Cloudy 32 0 27 -3 80 80 NNW 10 17 30.12 1020 30 48 N/A
7:20 am 07:20 Mostly Cloudy 32 0 25 -4 75 75 NNW 15 24 30.15 1021 30 48 N/A
8:20 am 08:20 Mostly Cloudy 32 0 25 -4 75 75 NNW 12 19 30.18 1022 30 48 N/A
9:20 am 09:20 Mostly Cloudy 34 1 27 -3 75 75 NNW 8 13 30.21 1023 30 48 N/A
10:20 am 10:20 Mostly Cloudy 34 1 27 -3 75 75 NNW 12 19 30.24 1024 30 48 N/A
11:20 am 11:20 Mostly Cloudy 36 2 27 -3 70 70 NNW 9 15 30.27 1025 30 48 N/A
12:20 pm 12:20 Mostly Cloudy 36 2 27 -3 70 70 NNW 9 15 30.27 1025 30 48 N/A
1:20 pm 13:20 Mostly Cloudy 36 2 30 -1 81 81 WNW 12 19 30.27 1025 30 48 N/A
2:20 pm 14:20 Mostly Cloudy 37 3 28 -2 70 70 WNW 9 15 30.27 1025 30 48 N/A
3:20 pm 15:20 Mostly Cloudy 37 3 30 -1 75 75 W 12 19 30.30 1026 30 48 N/A
4:20 pm 16:20 Mostly Cloudy with Light Rain 36 2 30 -1 81 81 W 10 17 30.30 1026 30 48 N/A
5:20 pm 17:20 Mostly Cloudy 36 2 32 0 87 87 W 12 19 30.30 1026 30 48 N/A
6:20 pm 18:20 Mostly Cloudy 36 2 32 0 87 87 WSW 10 17 30.30 1026 30 48 N/A
7:20 pm 19:20 Mostly Cloudy 37 3 34 1 87 87 W 12 19 30.30 1026 30 48 N/A
8:20 pm 20:20 Mostly Cloudy 37 3 34 1 87 87 NW 16 26 30.30 1026 30 48 N/A
9:20 pm 21:20 Mostly Cloudy 39 4 32 0 75 75 NW 14 22 30.33 1027 30 48 N/A
10:20 pm 22:20 Mostly Cloudy 39 4 36 2 87 87 WNW 12 19 30.33 1027 30 48 N/A
11:20 pm 23:20 Mostly Cloudy 39 4 36 2 87 87 WNW 14 22 30.33 1027 30 48 N/A

Powered by AerisWeather